Flag for Canada Weather past 2 weeks in Owen Sound, Ontario, Canada

Now
37 °F

Overcast.


Feels Like: 31 °F
Forecast: N/A
Wind: 8 mph from Southwest

Location: Wiarton

Current Time: Dec 26, 2014 at 6:00:23 PM

Latest Report: Dec 26, 2014 at 5:00 PM


Visibility: 10 mi

Pressure: 30.08 "Hg

Humidity: 87%

Dew point: 34 °F

Location of Owen SoundLocation

Historic Weather in Owen Sound — Graph

°F

Owen Sound temperature yesterday

Maximum temperature yesterday: 37 °F (at 12:00 AM)
Minimum temperature yesterday: 34 °F (at 2:00 AM)
Average temperature yesterday: 37 °F

Past Weeks' High & Low Weather Summary

 TemperatureHumidityPressure
High50 °F (Dec 24, 10:00 PM)100% (Dec 12, 9:00 PM)30.33 "Hg (Dec 12, 9:00 PM)
Low16 °F (Dec 20, 4:00 AM)29% (Dec 11, 4:00 PM)29.00 "Hg (Dec 24, 11:00 PM)
Average33 °F88%30.00 "Hg
* Reported Dec 11 4:00 PM — Dec 26 4:00 PM, Owen Sound, Weather by CustomWeather, © 2014

Note: Actual official high and low records may vary slightly from our data, if they occured in-between our weather recording intervals... More about our weather records

Advertising

Owen Sound weather history for previous 24 hours

 ConditionsComfort  
Time TempWeatherWind HumidityBarometerVisibility
4:00 PM
Dec 26
37 °FOvercast.9 mph87%30.07 "Hg12 mi
3:00 PM39 °FChilly.10 mph81%30.05 "Hg12 mi
2:00 PM39 °FOvercast.10 mph81%30.05 "Hg12 mi
1:00 PM39 °FOvercast.10 mph87%30.05 "Hg10 mi
12:00 PM37 °FOvercast.14 mph87%30.09 "Hg8 mi
11:00 AM37 °FOvercast.9 mph87%30.11 "Hg8 mi
10:00 AM36 °FOvercast.12 mph93%30.11 "Hg8 mi
9:00 AM36 °FOvercast.10 mph93%30.11 "Hg10 mi
8:00 AM36 °FOvercast.9 mph87%30.09 "Hg12 mi
7:00 AM37 °FMostly cloudy.8 mph87%30.09 "Hg12 mi
6:00 AM37 °FOvercast.9 mph81%30.10 "Hg15 mi
5:00 AM37 °FOvercast.12 mph81%30.10 "Hg15 mi
4:00 AM37 °FOvercast.10 mph81%30.10 "Hg15 mi
3:00 AM37 °FOvercast.12 mph81%30.08 "Hg15 mi
2:00 AM37 °FOvercast.13 mph81%30.07 "Hg15 mi
1:00 AM37 °FOvercast.15 mph81%30.06 "Hg15 mi
12:00 AM37 °FOvercast.14 mph81%30.05 "Hg15 mi
11:00 PM
Dec 25
37 °FOvercast.12 mph81%30.04 "Hg15 mi
10:00 PM37 °FOvercast.13 mph75%30.03 "Hg15 mi
9:00 PM37 °FOvercast.13 mph81%30.01 "Hg15 mi
8:00 PM37 °FOvercast.13 mph81%29.99 "Hg15 mi
7:00 PM37 °FOvercast.17 mph81%29.98 "Hg15 mi
6:00 PM37 °FOvercast.13 mph81%29.95 "Hg15 mi
Weather by CustomWeather, © 2014

See weather overviewHow to use our weather pages